Flag for Germany Weather past 2 weeks in Weinheim, Baden-Württemberg, Germany

Now
68 °F

Passing clouds.


Feels Like: 68 °F
Forecast: 50 / 61 °F
Wind: 7 mph from Southwest

Location: Baden Wurttemberg - Neuostheim

Current Time: Aug 22, 2014 at 7:54:54 PM

Latest Report: Aug 22, 2014 at 7:20 PM


Visibility: N/A

Pressure: 29.92 "Hg

Humidity: 40%

Dew point: 43 °F

Location of WeinheimLocation

Historic Weather in Weinheim — Graph

°F

Weinheim temperature yesterday

Maximum temperature yesterday: 70 °F (at 4:20 PM)
Minimum temperature yesterday: 50 °F (at 6:20 AM)
Average temperature yesterday: 62 °F

Past Weeks' High & Low Weather Summary

 TemperatureHumidityPressure
High81 °F (Aug 8, 1:50 PM)100% (Aug 10, 7:50 AM)30.12 "Hg (Aug 10, 7:50 AM)
Low48 °F (Aug 20, 5:50 AM)33% (Aug 21, 4:20 PM)29.65 "Hg (Aug 13, 1:50 PM)
Average65 °F65%29.92 "Hg
* Reported Aug 7 6:20 PM — Aug 22 6:50 PM, Weinheim, Weather by CustomWeather, © 2014

Note: Actual official high and low records may vary slightly from our data, if they occured in-between our weather recording intervals... More about our weather records

Advertising

Weinheim weather history for previous 24 hours

 ConditionsComfort  
Time TempWeatherWind HumidityBarometerVisibility
6:50 PM
Aug 22
70 °FPassing clouds.8 mph38%29.92 "HgN/A
6:20 PM70 °FPassing clouds.6 mph38%29.92 "HgN/A
5:50 PM68 °FPassing clouds.8 mph38%29.95 "HgN/A
5:20 PM70 °FPassing clouds.8 mph35%29.95 "HgN/A
4:50 PM70 °FPassing clouds.5 mph33%29.95 "HgN/A
4:20 PM68 °FPassing clouds.7 mph43%29.95 "HgN/A
3:50 PM68 °FPassing clouds.7 mph46%29.95 "HgN/A
3:20 PM68 °FPassing clouds.8 mph43%29.95 "HgN/A
2:50 PM70 °FPassing clouds.6 mph43%29.98 "HgN/A
2:20 PM66 °FPassing clouds.7 mph43%29.98 "HgN/A
1:50 PM70 °FSunny.7 mph40%29.98 "Hg10 mi
1:20 PM66 °FPassing clouds.8 mph49%29.98 "HgN/A
12:50 PM66 °FPassing clouds.9 mph49%29.98 "HgN/A
12:20 PM66 °FPassing clouds.8 mph52%29.98 "HgN/A
11:50 AM64 °FPassing clouds.9 mph56%30.01 "HgN/A
11:20 AM64 °FPassing clouds.6 mph56%30.01 "HgN/A
10:50 AM61 °FPassing clouds.7 mph59%30.01 "HgN/A
10:20 AM61 °FPassing clouds.5 mph63%30.01 "HgN/A
9:50 AM57 °FPassing clouds.7 mph72%30.01 "HgN/A
9:20 AM55 °FPassing clouds.6 mph77%30.01 "HgN/A
8:50 AM55 °FPassing clouds.5 mph77%30.01 "HgN/A
8:20 AM54 °FPassing clouds.5 mph82%30.01 "HgN/A
7:50 AM54 °FPassing clouds.5 mph77%30.01 "HgN/A
7:20 AM50 °FClear.3 mph88%30.01 "Hg10 mi
6:50 AM50 °FClear.3 mph82%30.01 "Hg10 mi
6:20 AM50 °FClear.5 mph88%30.01 "Hg10 mi
5:50 AM50 °FClear.3 mph88%30.01 "Hg10 mi
5:20 AM50 °FClear.5 mph82%30.01 "Hg10 mi
8:50 PM
Aug 21
64 °FSunny.3 mph40%30.01 "Hg10 mi
8:20 PM64 °FSunny.5 mph40%30.01 "Hg10 mi
7:50 PM66 °FPassing clouds.7 mph40%30.01 "HgN/A
7:20 PM68 °FSunny.9 mph35%30.01 "Hg10 mi
Weather by CustomWeather, © 2014

See weather overviewHow to use our weather pages